Location: Rounton
(54.4000°N, 1.3500°W)
Time: 08:39:42
(UTC+00:00)

Vanguard 1 Rocket - Pass Details

Date: 02 December 2021
Orbit: 651 x 4224 km, 34.3° (Epoch: 19 January)

Event Time Altitude Azimuth Distance (km) Brightness Sun altitude
Rises 03:39:08 0° 228° (SW) 5,090 - -37.3°
Reaches altitude 10° 03:42:19 10° 218° (SW) 4,504 - -36.8°
Exits shadow 03:47:39 26° 196° (SSW) 3,958 10.3 -36.1°
Maximum altitude 03:53:57 35° 160° (SSE) 4,124 10.6 -35.2°
Drops below altitude 10° 04:12:31 10° 106° (ESE) 7,150 12.7 -32.5°
Sets 04:19:27 0° 99° (E) 8,408 13.4 -31.5°
